Location: Cremona
(45.1170°N, 10.0330°E)
Time: 15:19:14
(UTC+01:00)

ISS - Pass Details

Date: 31 January 2019
Orbit: 403 x 411 km, 51.6° (Epoch: 18 February)

Event Time Altitude Azimuth Distance (km) Brightness Sun altitude
Rises 19:46:33 0° 296° (WNW) 2,339 1.1 -25.0°
Reaches altitude 10° 19:48:48 10° 308° (NW) 1,479 -0.3 -25.4°
Enters shadow 19:49:58 18° 322° (NW) 1,091 -1.3 -25.6°
